When you browse on this site, cookies collect data to enhance your experience and personalize the content and advertising you see.
Visit our Privacy Policy to learn more. By continuing to use the site, you agree to this use of cookies and data.
  • In Hungary
  • List of Countries
  • For 7 days
  • Water Temperature
  • Weather Map
  • News
  • Weather Widgets
  • user-avatar
    Login

    Hourly Weather Bolama

    Today, 21 November, Thursday

    Time Temperature Precipitation Wind Pressure Humidity
    00:00 +27°C° 0 mm 3 mps 757 mmHg 68%
    01:00 +27°C° 0 mm 2 mps 757 mmHg 72%
    02:00 +26°C° 0 mm 2 mps 757 mmHg 75%
    03:00 +26°C° 0 mm 2 mps 757 mmHg 71%
    04:00 +26°C° 0 mm 2 mps 757 mmHg 66%
    05:00 +25°C° 0 mm 2 mps 757 mmHg 55%
    06:00 +26°C° 0 mm 2 mps 758 mmHg 50%
    07:00 +28°C° 0 mm 3 mps 758 mmHg 44%
    08:00 +29°C° 0 mm 3 mps 758 mmHg 39%
    09:00 +31°C° 0 mm 3 mps 758 mmHg 35%
    10:00 +34°C° 0 mm 2 mps 758 mmHg 31%
    11:00 +37°C° 0 mm 2 mps 758 mmHg 26%
    12:00 +37°C° 0 mm 2 mps 757 mmHg 25%
    13:00 +38°C° 0 mm 2 mps 756 mmHg 24%
    14:00 +39°C° 0 mm 2 mps 756 mmHg 23%
    15:00 +38°C° 0 mm 2 mps 756 mmHg 28%
    16:00 +36°C° 0 mm 3 mps 756 mmHg 33%
    17:00 +35°C° 0 mm 3 mps 756 mmHg 38%
    18:00 +31°C° 0 mm 3 mps 756 mmHg 47%
    19:00 +29°C° 0 mm 4 mps 757 mmHg 57%
    20:00 +27°C° 0 mm 4 mps 757 mmHg 66%
    21:00 +27°C° 0 mm 4 mps 757 mmHg 70%
    22:00 +27°C° 0 mm 4 mps 757 mmHg 74%
    23:00 +27°C° 0 mm 4 mps 757 mmHg 78%

    Tomorrow, 22 November, Friday

    Time Temperature Precipitation Wind Pressure Humidity
    00:00 +27°C° 0 mm 4 mps 757 mmHg 76%
    01:00 +27°C° 0 mm 4 mps 757 mmHg 75%
    02:00 +26°C° 0 mm 3 mps 757 mmHg 73%
    03:00 +26°C° 0 mm 3 mps 757 mmHg 72%
    04:00 +25°C° 0 mm 3 mps 757 mmHg 70%
    05:00 +25°C° 0 mm 2 mps 757 mmHg 68%
    06:00 +26°C° 0 mm 3 mps 757 mmHg 62%
    07:00 +27°C° 0 mm 3 mps 758 mmHg 55%
    08:00 +29°C° 0 mm 3 mps 758 mmHg 49%
    09:00 +31°C° 0 mm 3 mps 758 mmHg 42%
    10:00 +34°C° 0 mm 3 mps 758 mmHg 35%
    11:00 +36°C° 0 mm 3 mps 758 mmHg 28%
    12:00 +37°C° 0 mm 2 mps 757 mmHg 27%
    13:00 +38°C° 0 mm 2 mps 756 mmHg 26%
    14:00 +39°C° 0 mm 1 mps 755 mmHg 25%
    15:00 +38°C° 0 mm 2 mps 755 mmHg 31%
    16:00 +36°C° 0 mm 4 mps 755 mmHg 38%
    17:00 +34°C° 0 mm 5 mps 755 mmHg 44%
    18:00 +32°C° 0 mm 4 mps 756 mmHg 53%
    19:00 +29°C° 0 mm 4 mps 756 mmHg 62%
    20:00 +27°C° 0 mm 4 mps 757 mmHg 70%
    21:00 +27°C° 0 mm 4 mps 757 mmHg 72%
    22:00 +27°C° 0 mm 4 mps 757 mmHg 74%
    23:00 +27°C° 0 mm 4 mps 757 mmHg 76%

    Day after tomorrow, 23 November, Saturday

    Time Temperature Precipitation Wind Pressure Humidity
    00:00 +26°C° 0 mm 4 mps 757 mmHg 76%
    01:00 +26°C° 0 mm 3 mps 757 mmHg 76%
    02:00 +26°C° 0 mm 3 mps 757 mmHg 76%
    03:00 +25°C° 0 mm 2 mps 757 mmHg 78%
    04:00 +25°C° 0 mm 2 mps 757 mmHg 79%
    05:00 +24°C° 0 mm 2 mps 757 mmHg 80%
    06:00 +26°C° 0 mm 2 mps 757 mmHg 73%
    07:00 +28°C° 0 mm 2 mps 758 mmHg 66%
    08:00 +29°C° 0 mm 2 mps 758 mmHg 60%
    09:00 +32°C° 0 mm 2 mps 758 mmHg 50%
    10:00 +35°C° 0 mm 2 mps 757 mmHg 40%
    11:00 +37°C° 0 mm 2 mps 757 mmHg 31%
    12:00 +38°C° 0 mm 2 mps 757 mmHg 29%
    13:00 +39°C° 0 mm 3 mps 756 mmHg 27%
    14:00 +40°C° 0 mm 3 mps 755 mmHg 26%
    15:00 +38°C° 0 mm 4 mps 755 mmHg 36%
    16:00 +35°C° 0 mm 4 mps 755 mmHg 45%
    17:00 +33°C° 0 mm 5 mps 755 mmHg 55%
    18:00 +32°C° 0 mm 5 mps 756 mmHg 62%
    19:00 +29°C° 0 mm 4 mps 756 mmHg 69%
    20:00 +28°C° 0 mm 4 mps 757 mmHg 75%
    21:00 +27°C° 0 mm 4 mps 757 mmHg 76%
    22:00 +27°C° 0 mm 4 mps 757 mmHg 76%
    23:00 +27°C° 0 mm 4 mps 757 mmHg 76%

    24 November, Sunday

    Time Temperature Precipitation Wind Pressure Humidity
    00:00 +27°C° 0 mm 4 mps 757 mmHg 76%
    01:00 +26°C° 0 mm 3 mps 757 mmHg 77%
    02:00 +26°C° 0 mm 3 mps 757 mmHg 77%
    03:00 +26°C° 0 mm 2 mps 757 mmHg 78%
    04:00 +25°C° 0 mm 2 mps 757 mmHg 78%
    05:00 +25°C° 0 mm 2 mps 756 mmHg 78%
    06:00 +26°C° 0 mm 2 mps 757 mmHg 72%
    07:00 +28°C° 0 mm 2 mps 757 mmHg 66%
    08:00 +29°C° 0 mm 2 mps 758 mmHg 60%
    09:00 +32°C° 0 mm 2 mps 758 mmHg 51%
    10:00 +36°C° 0 mm 2 mps 757 mmHg 42%
    11:00 +37°C° 0 mm 1 mps 757 mmHg 33%
    12:00 +39°C° 0 mm 2 mps 756 mmHg 30%
    13:00 +40°C° 0 mm 3 mps 756 mmHg 28%
    14:00 +42°C° 0 mm 4 mps 755 mmHg 26%
    15:00 +38°C° 0 mm 4 mps 755 mmHg 37%
    16:00 +35°C° 0 mm 5 mps 755 mmHg 48%
    17:00 +33°C° 0 mm 5 mps 755 mmHg 58%
    18:00 +30°C° 0 mm 5 mps 756 mmHg 65%
    19:00 +29°C° 0 mm 5 mps 756 mmHg 71%
    20:00 +28°C° 0 mm 5 mps 757 mmHg 78%
    21:00 +27°C° 0 mm 4 mps 757 mmHg 81%
    22:00 +27°C° 0 mm 4 mps 757 mmHg 84%
    23:00 +27°C° 0 mm 4 mps 757 mmHg 87%

    25 November, Monday

    Time Temperature Precipitation Wind Pressure Humidity
    00:00 +27°C° 0 mm 4 mps 757 mmHg 87%
    01:00 +26°C° 0 mm 3 mps 757 mmHg 87%
    02:00 +26°C° 0 mm 3 mps 756 mmHg 87%
    03:00 +26°C° 0 mm 3 mps 756 mmHg 84%
    04:00 +26°C° 0 mm 2 mps 756 mmHg 82%
    05:00 +26°C° 0 mm 2 mps 756 mmHg 79%
    06:00 +27°C° 0 mm 2 mps 757 mmHg 73%
    07:00 +28°C° 0 mm 1 mps 757 mmHg 68%
    08:00 +30°C° 0 mm 1 mps 758 mmHg 63%
    09:00 +32°C° 0 mm 2 mps 758 mmHg 54%
    10:00 +36°C° 0 mm 2 mps 757 mmHg 44%
    11:00 +38°C° 0 mm 3 mps 757 mmHg 35%
    12:00 +38°C° 0 mm 3 mps 757 mmHg 34%
    13:00 +38°C° 0 mm 4 mps 756 mmHg 33%
    14:00 +40°C° 0 mm 4 mps 755 mmHg 33%
    15:00 +36°C° 0 mm 4 mps 756 mmHg 41%
    16:00 +34°C° 0 mm 5 mps 756 mmHg 49%
    17:00 +32°C° 0 mm 5 mps 756 mmHg 57%
    18:00 +30°C° 0 mm 5 mps 756 mmHg 62%
    19:00 +29°C° 0 mm 5 mps 757 mmHg 67%
    20:00 +28°C° 0 mm 5 mps 757 mmHg 72%
    21:00 +27°C° 0 mm 4 mps 757 mmHg 74%
    22:00 +27°C° 0 mm 4 mps 758 mmHg 77%
    23:00 +27°C° 0 mm 4 mps 758 mmHg 80%

    26 November, Tuesday

    Time Temperature Precipitation Wind Pressure Humidity
    00:00 +27°C° 0 mm 4 mps 757 mmHg 82%
    01:00 +26°C° 0 mm 4 mps 757 mmHg 84%
    02:00 +26°C° 0 mm 3 mps 757 mmHg 86%
    03:00 +26°C° 0 mm 3 mps 757 mmHg 86%
    04:00 +26°C° 0 mm 3 mps 757 mmHg 87%
    05:00 +26°C° 0 mm 2 mps 757 mmHg 87%
    06:00 +27°C° 0 mm 2 mps 757 mmHg 80%
    07:00 +28°C° 0 mm 1 mps 757 mmHg 74%
    08:00 +30°C° 0 mm 1 mps 758 mmHg 67%
    09:00 +33°C° 0 mm 1 mps 758 mmHg 56%
    10:00 +36°C° 0 mm 2 mps 757 mmHg 45%
    11:00 +39°C° 0 mm 2 mps 757 mmHg 33%
    12:00 +39°C° 0 mm 2 mps 756 mmHg 32%
    13:00 +39°C° 0 mm 3 mps 756 mmHg 30%
    14:00 +40°C° 0 mm 4 mps 755 mmHg 28%
    15:00 +37°C° 0 mm 4 mps 755 mmHg 38%
    16:00 +34°C° 0 mm 4 mps 755 mmHg 48%
    17:00 +32°C° 0 mm 5 mps 755 mmHg 58%
    18:00 +30°C° 0 mm 5 mps 756 mmHg 63%
    19:00 +29°C° 0 mm 5 mps 756 mmHg 68%
    20:00 +28°C° 0 mm 4 mps 757 mmHg 73%
    21:00 +27°C° 0 mm 4 mps 757 mmHg 76%
    22:00 +27°C° 0 mm 4 mps 757 mmHg 78%
    23:00 +27°C° 0 mm 4 mps 757 mmHg 81%
    Show more